User: anonymous   Login
Location: Unspecified
(0.0000°N, 0.0000°E)
Time: 04:45:05
(UTC+00:00)
Language:

NOAA 2 - Orbit

View from above orbital plane
View from above orbital plane
View from above satellite
View from above satellite

Ground track
Ground track

The orbit data is extracted from the following two-line orbital elements,

1  6235U 72082A   18020.42273013 -.00000043 +00000-0 +11552-4 0  9994
2  6235 101.7173 347.2231 0003832 290.6369 246.6748 12.53100275070652
Epoch (UTC): 20 January 2018 10:08:43
Eccentricity: 0.0003832
inclination: 101.7173°
perigee height: 1448 km
apogee height: 1454 km
right ascension of ascending node: 347.2231°
argument of perigee: 290.6369°
revolutions per day: 12.53100275
mean anomaly at epoch: 246.6748°
orbit number at epoch: 7065

The dashed part of the orbit path shows where the satellite is in the earth's shadow,  

DLR